YO8KGT-13 Weather Reports


time (UTC)temp
F
wind
direction
speed
knots
gust
knots
rain 1hr
in
rain 24hr
in
rain mn
in
humidity
%
barometer
mb
20260905152940 64 0 0.0 0.0 0.00 0.00 0.00 73 945.0
20260905152416 64 0 0.0 0.0 0.00 0.00 0.00 71 945.0
20260905151925 64 0 0.0 0.0 0.00 0.00 0.00 70 945.0
20260905151416 64 0 0.0 0.0 0.00 0.00 0.00 70 945.0
20260905150918 65 0 0.0 0.0 0.00 0.00 0.00 69 946.0
20260905150416 65 0 0.0 0.0 0.00 0.00 0.00 68 946.0
20260905145917 65 0 0.0 0.0 0.00 0.00 0.00 68 946.0
20260905145434 66 0 0.0 0.0 0.00 0.00 0.00 67 946.0
20260905144916 66 0 0.0 0.0 0.00 0.00 0.00 67 945.0
20260905144428 66 0 0.0 0.0 0.00 0.00 0.00 67 945.0
20260905143917 66 0 0.0 1.7 0.00 0.00 0.00 68 945.0
20260905143417 67 0 0.0 1.7 0.00 0.00 0.00 68 945.0
20260905142918 67 0 0.0 3.5 0.00 0.00 0.00 68 946.0
20260905142416 67 0 0.0 3.5 0.00 0.00 0.00 68 945.0
20260905141941 67 338 0.0 3.5 0.00 0.00 0.00 68 945.0
20260905141417 67 338 3.5 3.5 0.00 0.00 0.00 68 945.0
20260905140924 67 338 0.9 3.5 0.00 0.00 0.00 68 946.0
20260905140416 67 338 0.0 3.5 0.00 0.00 0.00 68 945.0
20260905135921 67 338 1.7 3.5 0.00 0.00 0.00 68 945.0
20260905135416 67 0 2.6 3.5 0.00 0.00 0.00 69 945.0
20260905134916 67 0 0.0 1.7 0.00 0.00 0.00 70 945.0
20260905134437 67 0 0.0 4.3 0.00 0.00 0.00 70 944.0
20260905133916 67 0 0.0 4.3 0.00 0.00 0.00 70 945.0
20260905133433 67 0 0.0 4.3 0.00 0.00 0.00 70 945.0
20260905132917 67 0 3.5 4.3 0.00 0.00 0.00 70 945.0
20260905132417 67 0 4.3 4.3 0.00 0.00 0.00 69 945.0
20260905131916 68 0 0.0 2.6 0.00 0.00 0.00 69 945.0
20260905131416 68 0 1.7 2.6 0.00 0.00 0.00 69 945.0
20260905130944 68 0 0.0 2.6 0.00 0.00 0.00 68 945.0
20260905130417 68 0 1.7 3.5 0.00 0.00 0.00 68 945.0
20260905125929 68 338 0.0 3.5 0.00 0.00 0.00 67 944.0
20260905125416 68 0 1.7 4.3 0.00 0.00 0.00 65 945.0
20260905124916 70 0 3.5 5.2 0.00 0.00 0.00 63 945.0
20260905124418 72 0 4.3 6.1 0.00 0.00 0.00 60 945.0
20260905123917 74 0 0.9 6.1 0.00 0.00 0.00 56 945.0
20260905123440 76 22 5.2 6.1 0.00 0.00 0.00 53 945.0
20260905122916 77 338 3.5 5.2 0.00 0.00 0.00 52 945.0
20260905122423 78 22 0.0 7.0 0.00 0.00 0.00 52 944.0
20260905121917 80 22 4.3 7.0 0.00 0.00 0.00 51 945.0
20260905121418 81 0 1.7 7.0 0.00 0.00 0.00 50 944.0
20260905120917 82 0 0.9 7.0 0.00 0.00 0.00 49 944.0
20260905120417 82 22 1.7 7.0 0.00 0.00 0.00 47 944.0
20260905115936 83 22 3.5 7.0 0.00 0.00 0.00 46 944.0
20260905115418 85 0 7.0 7.0 0.00 0.00 0.00 45 944.0
20260905114932 86 0 1.7 3.5 0.00 0.00 0.00 44 944.0
20260905114417 88 22 3.5 3.5 0.00 0.00 0.00 43 944.0
20260905113916 89 45 2.6 2.6 0.00 0.00 0.00 42 943.0
20260905113449 91 22 1.7 2.6 0.00 0.00 0.00 41 943.0
20260905112917 91 22 0.0 2.6 0.00 0.00 0.00 41 943.0
20260905112443 91 45 1.7 2.6 0.00 0.00 0.00 40 943.0
20260905111917 92 22 0.0 2.6 0.00 0.00 0.00 39 943.0
20260905111426 93 0 0.0 1.7 0.00 0.00 0.00 40 943.0
20260905110925 92 0 0.0 1.7 0.00 0.00 0.00 40 943.0
20260905110422 92 22 1.7 1.7 0.00 0.00 0.00 40 943.0
20260905105917 92 0 0.0 1.7 0.00 0.00 0.00 40 943.0
20260905105416 92 0 0.0 0.0 0.00 0.00 0.00 40 943.0
20260905104942 92 0 0.0 0.0 0.00 0.00 0.00 40 943.0
20260905104441 92 22 0.0 1.7 0.00 0.00 0.00 39 943.0
20260905103937 92 22 0.0 1.7 0.00 0.00 0.00 39 943.0
20260905103417 94 0 1.7 1.7 0.00 0.00 0.00 38 943.0
20260905102922 95 315 0.0 0.9 0.00 0.00 0.00 38 943.0
20260905102417 96 292 0.0 0.0 0.00 0.00 0.00 38 943.0
20260905101954 96 292 0.0 0.0 0.00 0.00 0.00 38 943.0
20260905101416 96 292 0.0 0.0 0.00 0.00 0.00 38 943.0
20260905100917 96 315 0.0 0.0 0.00 0.00 0.00 39 943.0
20260905100434 96 315 0.0 0.0 0.00 0.00 0.00 39 943.0
20260905095916 95 315 0.0 0.0 0.00 0.00 0.00 39 943.0
20260905095507 95 270 0.0 0.9 0.00 0.00 0.00 39 943.0
20260905094916 95 270 0.0 1.7 0.00 0.00 0.00 39 943.0
20260905094416 95 292 0.0 1.7 0.00 0.00 0.00 39 943.0
20260905093916 95 292 1.7 1.7 0.00 0.00 0.00 40 943.0
20260905093415 95 248 0.9 1.7 0.00 0.00 0.00 41 943.0
20260905093018 94 270 0.0 1.7 0.00 0.00 0.00 41 942.0
20260905092417 94 270 0.0 1.7 0.00 0.00 0.00 41 943.0
20260905091925 93 270 0.0 0.9 0.00 0.00 0.00 42 943.0
20260905091416 92 292 0.0 2.6 0.00 0.00 0.00 43 943.0
20260905090917 92 270 0.0 2.6 0.00 0.00 0.00 44 943.0
20260905090417 90 292 0.0 2.6 0.00 0.00 0.00 45 943.0
20260905085917 89 248 2.6 2.6 0.00 0.00 0.00 46 943.0
20260905085437 88 315 0.0 1.7 0.00 0.00 0.00 47 943.0
20260905084915 87 270 0.0 1.7 0.00 0.00 0.00 48 943.0
20260905084422 85 270 0.0 1.7 0.00 0.00 0.00 50 943.0
20260905083916 84 270 0.0 0.9 0.00 0.00 0.00 50 943.0
20260905083417 83 270 0.9 3.5 0.00 0.00 0.00 50 943.0
20260905082915 82 270 0.0 3.5 0.00 0.00 0.00 50 943.0
20260905082417 82 270 1.7 3.5 0.00 0.00 0.00 50 943.0
20260905081934 83 270 1.7 1.7 0.00 0.00 0.00 51 943.0
20260905081417 83 248 0.0 0.0 0.00 0.00 0.00 51 943.0
20260905080928 83 270 0.0 1.7 0.00 0.00 0.00 52 943.0
20260905080416 83 270 0.0 1.7 0.00 0.00 0.00 53 943.0
20260905075916 82 270 0.0 1.7 0.00 0.00 0.00 53 943.0
20260905075417 82 270 1.7 2.6 0.00 0.00 0.00 54 943.0
20260905074916 80 270 0.9 2.6 0.00 0.00 0.00 55 943.0
20260905074415 78 248 2.6 3.5 0.00 0.00 0.00 57 943.0
20260905073916 76 270 0.0 3.5 0.00 0.00 0.00 58 943.0
20260905073428 76 270 0.0 3.5 0.00 0.00 0.00 57 944.0
20260905072916 76 270 0.0 0.0 0.00 0.00 0.00 57 944.0
20260905072423 76 248 0.0 0.0 0.00 0.00 0.00 57 943.0
20260905071916 76 292 0.0 0.0 0.00 0.00 0.00 58 944.0
20260905071416 76 292 0.0 0.0 0.00 0.00 0.00 58 944.0
20260905070942 76 292 0.0 1.7 0.00 0.00 0.00 57 944.0
20260905070417 76 292 0.0 1.7 0.00 0.00 0.00 58 944.0
20260905065936 76 270 0.0 1.7 0.00 0.00 0.00 58 944.0
20260905065417 76 292 0.0 1.7 0.00 9.83 0.00 58 944.0
20260905064919 76 225 1.7 1.7 0.00 0.00 0.00 59 944.0
20260905064416 76 248 0.0 1.7 0.00 0.00 0.00 59 944.0
20260905063916 76 0 0.0 1.7 0.00 0.00 0.00 60 944.0
20260905063416 76 292 0.0 1.7 0.00 0.00 0.00 61 944.0
20260905062916 76 292 1.7 1.7 0.00 0.00 0.00 62 944.0
20260905062416 75 270 0.0 2.6 0.00 0.00 0.00 62 944.0
20260905061917 75 270 0.0 3.5 0.00 0.00 0.00 63 944.0
20260905061443 74 270 0.0 3.5 0.00 0.00 0.00 64 944.0
20260905060916 74 270 2.6 3.5 0.00 0.00 0.00 64 944.0
20260905060439 73 292 0.0 0.9 0.00 0.00 0.00 65 944.0
20260905055917 72 270 0.0 0.0 0.00 0.00 0.00 66 944.0
20260905055421 71 315 0.0 1.7 0.00 0.00 0.00 67 944.0
20260905054917 70 270 0.0 1.7 0.00 0.00 0.00 67 944.0
20260905054416 70 270 0.0 1.7 0.00 0.00 0.00 68 944.0
20260905053917 70 292 0.0 1.7 0.00 0.00 0.00 68 944.0
20260905053416 69 248 0.0 1.7 0.00 0.00 0.00 69 944.0
20260905052936 69 248 0.0 1.7 0.00 0.00 0.00 69 944.0
20260905052416 68 225 0.0 1.7 0.00 0.00 0.00 70 944.0
20260905051928 68 270 0.0 1.7 0.00 0.00 0.00 70 944.0
20260905051416 67 270 0.0 0.0 0.00 0.00 0.00 71 944.0
20260905050916 67 270 0.0 0.0 0.00 0.00 0.00 72 944.0
20260905050415 65 270 0.0 0.0 0.00 0.00 0.00 73 944.0
20260905045917 65 270 0.0 0.0 0.00 0.00 0.00 73 944.0
20260905045440 64 248 0.0 0.0 0.00 0.00 0.00 73 944.0
20260905044917 63 248 0.0 0.0 0.00 0.00 0.00 74 944.0
20260905044423 63 248 0.0 0.0 0.00 0.00 0.00 74 944.0
20260905043916 62 248 0.0 0.0 0.00 0.00 0.00 74 944.0
20260905043415 62 248 0.0 0.0 0.00 0.00 0.00 74 944.0
20260905042917 61 248 0.0 0.0 0.00 0.00 0.00 74 944.0
20260905042416 61 248 0.0 0.0 0.00 0.00 0.00 74 944.0
20260905041935 61 248 0.0 0.0 0.00 0.00 0.00 74 944.0
20260905041417 61 248 0.0 0.0 0.00 0.00 0.00 74 944.0
20260905040919 61 248 0.0 0.0 0.00 0.00 0.00 74 944.0
20260905040416 60 248 0.0 0.0 0.00 0.00 0.00 74 944.0
20260905035916 60 248 0.0 0.0 0.00 0.00 0.00 74 944.0
20260905035416 60 248 0.0 0.0 0.00 0.00 0.00 74 944.0
20260905034915 60 248 0.0 0.0 0.00 0.00 0.00 74 944.0
20260905034432 61 248 0.0 0.0 0.00 0.00 0.00 74 944.0
20260905033915 61 248 0.0 0.0 0.00 0.00 0.00 74 943.0
20260905033424 61 248 0.0 0.0 0.00 0.00 0.00 74 944.0
20260905032917 61 248 0.0 0.0 0.00 0.00 0.00 74 944.0
20260905032416 61 248 0.0 0.0 0.00 0.00 0.00 74 944.0
20260905031941 61 248 0.0 0.0 0.00 0.00 0.00 74 944.0
20260905031415 61 248 0.0 0.0 0.00 0.00 0.00 74 944.0
20260905030936 61 248 0.0 0.0 0.00 0.00 0.00 74 944.0
20260905030416 61 248 0.0 0.0 0.00 0.00 0.00 74 944.0
20260905025921 61 248 0.0 0.0 0.00 0.00 0.00 74 944.0
20260905025416 61 248 0.0 0.0 0.00 0.00 0.00 74 943.0
20260905024915 61 248 0.0 0.0 0.00 0.00 0.00 74 944.0
20260905024417 61 248 0.0 0.0 0.00 0.00 0.00 74 944.0
20260905023916 61 248 0.0 3.5 0.00 0.00 0.00 74 944.0
20260905023434 61 270 0.0 3.5 0.00 0.00 0.00 74 944.0
20260905022915 61 248 3.5 3.5 0.00 0.00 0.00 74 944.0
20260905022429 61 248 0.0 0.9 0.00 0.00 0.00 74 944.0
20260905021915 61 248 0.0 0.9 0.00 0.00 0.00 74 944.0
20260905021416 61 248 0.0 0.0 0.00 0.00 0.00 74 944.0
20260905020916 61 248 0.0 0.0 0.00 0.00 0.00 74 944.0
20260905020415 61 248 0.0 0.0 0.00 0.00 0.00 74 944.0
20260905015942 61 248 0.0 0.0 0.00 0.00 0.00 73 944.0
20260905015416 61 248 0.0 0.0 0.00 0.00 0.00 73 944.0
20260905014926 61 248 0.0 0.0 0.00 0.00 0.00 73 944.0
20260905014415 61 248 0.0 0.0 0.00 0.00 0.00 73 944.0
20260905013916 61 248 0.0 1.7 0.00 0.00 0.00 73 944.0
20260905013416 61 248 0.0 1.7 0.00 0.00 0.00 73 944.0
20260905012916 61 248 0.0 1.7 0.00 0.00 0.00 72 944.0
20260905012439 61 248 0.0 1.7 0.00 0.00 0.00 72 944.0
20260905011917 61 248 0.0 1.7 0.00 0.00 0.00 71 944.0
20260905011424 62 248 1.7 1.7 0.00 0.00 0.00 71 944.0
20260905010916 62 248 0.0 1.7 0.00 0.00 0.00 71 944.0
20260905010417 62 248 1.7 1.7 0.00 0.00 0.00 70 944.0
20260905005916 62 248 0.0 2.6 0.00 0.00 0.00 70 944.0
20260905005416 62 248 0.0 2.6 0.00 0.00 0.00 69 944.0
20260905004938 62 248 0.0 2.6 0.00 9.83 0.00 69 944.0
20260905004415 63 248 2.6 2.6 0.00 0.00 0.00 68 944.0
20260905003932 63 248 1.7 1.7 0.00 0.00 0.00 68 944.0
20260905003416 63 248 0.0 0.0 0.00 0.00 0.00 68 944.0
20260905002917 63 292 0.0 0.0 0.00 0.00 0.00 67 944.0
20260905002448 63 292 0.0 0.0 0.00 0.00 0.00 67 944.0
20260905001915 63 292 0.0 0.0 0.00 0.00 0.00 67 944.0
20260905001440 63 292 0.0 0.0 0.00 0.00 0.00 67 944.0
20260905000917 63 292 0.0 0.0 0.00 0.00 0.00 67 944.0
20260905000424 63 292 0.0 0.0 0.00 0.00 0.00 67 944.0
20260904235923 63 292 0.0 0.0 0.00 0.00 0.00 67 944.0
20260904235421 63 292 0.0 0.0 0.00 0.00 0.00 68 944.0
20260904234916 63 292 0.0 0.0 0.00 0.00 0.00 67 944.0
20260904234416 63 292 0.0 0.0 0.00 0.00 0.00 67 944.0
20260904233939 64 292 0.0 0.0 0.00 0.00 0.00 66 944.0
20260904233438 64 292 0.0 0.0 0.00 0.00 0.00 66 944.0
20260904232935 64 292 0.0 0.0 0.00 0.00 0.00 65 944.0
20260904232415 64 292 0.0 0.0 0.00 0.00 0.00 65 944.0
20260904231920 64 292 0.0 0.0 0.00 0.00 0.00 65 944.0
20260904231415 64 292 0.0 0.0 0.00 0.00 0.00 65 944.0
20260904230952 64 292 0.0 0.0 0.00 0.00 0.00 66 944.0
20260904230416 64 292 0.0 0.0 0.00 0.00 0.00 66 944.0
20260904225916 65 0 0.0 0.0 0.00 0.00 0.00 66 944.0
20260904225429 64 292 0.0 0.0 0.00 0.00 0.00 66 944.0
20260904224916 64 292 0.0 0.0 0.00 0.00 0.00 66 944.0
20260904224502 64 292 0.0 0.0 0.00 0.00 0.00 66 944.0
20260904223917 64 292 0.0 0.0 0.00 0.00 0.00 67 945.0
20260904223416 64 292 0.0 0.0 0.00 0.00 0.00 66 944.0
20260904222941 64 292 0.0 0.0 0.00 0.00 0.00 66 944.0
20260904222415 64 292 0.0 0.0 0.00 0.00 0.00 66 944.0
20260904222014 64 292 0.0 0.0 0.00 0.00 0.00 66 945.0
20260904221415 64 292 0.0 0.0 0.00 0.00 0.00 66 945.0
20260904220920 64 292 0.0 0.0 0.00 0.00 0.00 66 945.0
20260904220415 64 292 0.0 0.0 0.00 0.00 0.00 66 945.0
20260904215916 64 292 0.0 0.0 0.00 0.00 0.00 66 945.0
20260904215416 65 292 0.0 0.0 0.00 0.00 0.00 66 945.0
20260904214916 65 292 0.0 0.0 0.00 0.00 0.00 65 945.0
20260904214430 65 292 0.0 0.0 0.00 0.00 0.00 66 945.0
20260904213916 65 292 0.0 0.0 0.00 0.00 0.00 65 945.0
20260904213415 65 292 0.0 0.0 0.00 0.00 0.00 65 945.0
20260904212916 65 292 0.0 0.0 0.00 0.00 0.00 65 945.0
20260904212416 65 292 0.0 0.0 0.00 0.00 0.00 65 945.0
20260904211942 65 292 0.0 0.0 0.00 0.00 0.00 65 945.0
20260904211416 65 292 0.0 0.0 0.00 0.00 0.00 65 945.0
20260904210926 65 292 0.0 0.0 0.00 0.00 0.00 65 945.0
20260904210416 65 292 0.0 0.0 0.00 0.00 0.00 64 945.0
20260904205919 65 292 0.0 0.0 0.00 0.00 0.00 64 945.0
20260904205416 65 292 0.0 0.0 0.00 0.00 0.00 64 945.0
20260904204915 65 292 0.0 0.0 0.00 0.00 0.00 63 945.0
20260904204438 66 292 0.0 0.0 0.00 0.00 0.00 63 945.0
20260904203916 66 292 0.0 0.0 0.00 0.00 0.00 62 945.0
20260904203431 66 292 0.0 0.0 0.00 0.00 0.00 62 945.0
20260904202915 67 292 0.0 0.0 0.00 0.00 0.00 62 945.0
20260904202415 67 292 0.0 0.0 0.00 0.00 0.00 62 945.0
20260904201916 67 292 0.0 0.9 0.00 0.00 0.00 62 945.0
20260904201415 67 292 0.0 0.9 0.00 0.00 0.00 62 945.0
20260904200915 67 292 0.0 0.9 0.00 0.00 0.00 61 945.0
20260904200415 68 292 0.0 0.0 0.00 0.00 0.00 61 945.0
20260904195927 68 292 0.0 0.0 0.00 0.00 0.00 61 945.0
20260904195415 68 292 0.0 0.0 0.00 0.00 0.00 61 945.0
20260904194922 68 292 0.0 0.0 0.00 0.00 0.00 61 945.0
20260904194415 68 292 0.0 0.0 0.00 0.00 0.00 61 945.0
20260904193916 68 292 0.0 0.0 0.00 0.00 0.00 61 945.0
20260904193439 68 292 0.0 0.0 0.00 0.00 0.00 60 945.0
20260904192915 68 292 0.0 0.0 0.00 0.00 0.00 60 945.0
20260904192432 68 292 0.0 0.0 0.00 0.00 0.00 60 945.0
20260904191916 68 292 0.0 0.0 0.00 0.00 0.00 60 945.0
20260904191414 69 292 0.0 1.7 0.00 0.00 0.00 60 945.0
20260904190915 69 292 0.0 1.7 0.00 0.00 0.00 60 945.0
20260904190415 69 292 1.7 1.7 0.00 0.00 0.00 60 945.0
20260904185916 69 292 0.0 0.0 0.00 0.00 0.00 60 945.0
20260904185415 69 292 0.0 0.0 0.00 0.00 0.00 60 945.0
20260904184929 69 292 0.0 0.0 0.00 0.00 0.00 60 945.0
20260904184415 69 292 0.0 0.0 0.00 0.00 0.00 60 945.0
20260904183916 69 292 0.0 0.0 0.00 0.00 0.00 60 945.0
20260904183415 69 292 0.0 0.0 0.00 0.00 0.00 60 945.0
20260904182915 69 292 0.0 0.0 0.00 0.00 0.00 60 945.0
20260904182439 69 292 0.0 0.0 0.00 0.00 0.00 60 945.0
20260904181915 69 292 0.0 0.0 0.00 0.00 0.00 60 945.0
20260904181424 69 292 0.0 0.0 0.00 0.00 0.00 60 945.0
20260904180916 69 292 0.0 0.0 0.00 0.00 0.00 60 945.0
20260904180417 69 292 0.0 0.0 0.00 0.00 0.00 60 945.0
20260904175915 70 292 0.0 0.0 0.00 0.00 0.00 60 945.0
20260904175415 70 292 0.0 0.0 0.00 0.00 0.00 59 945.0
20260904174935 70 292 0.0 0.0 0.00 0.00 0.00 59 945.0
20260904174416 71 292 0.0 0.0 0.00 0.00 0.00 59 945.0
20260904173926 71 292 0.0 0.0 0.00 0.00 0.00 60 945.0
20260904173414 71 292 0.0 0.0 0.00 0.00 0.00 59 944.0
20260904172915 71 292 0.0 0.0 0.00 0.00 0.00 59 945.0
20260904172416 71 292 0.0 0.0 0.00 0.00 0.00 59 945.0
20260904171915 72 292 0.0 0.0 0.00 0.00 0.00 59 945.0
20260904171423 72 292 0.0 0.0 0.00 0.00 0.00 59 945.0
20260904170916 72 292 0.0 0.0 0.00 0.00 0.00 59 945.0
20260904170415 72 292 0.0 0.0 0.00 0.00 0.00 59 945.0
20260904165941 72 292 0.0 0.0 0.00 0.00 0.00 59 945.0
20260904165414 72 292 0.0 0.0 0.00 0.00 0.00 59 945.0
20260904164937 73 292 0.0 0.0 0.00 0.00 0.00 59 945.0
20260904164415 73 292 0.0 0.0 0.00 0.00 0.00 59 944.0
20260904163918 73 292 0.0 0.0 0.00 0.00 0.00 59 945.0
20260904163416 73 292 0.0 0.0 0.00 0.00 0.00 59 944.0
20260904162914 73 292 0.0 0.0 0.00 0.00 0.00 59 944.0
20260904162416 73 315 0.0 0.0 0.00 0.00 0.00 58 945.0
20260904161914 74 315 0.0 0.0 0.00 0.00 0.00 58 945.0
20260904161429 74 315 0.0 0.0 0.00 0.00 0.00 58 945.0
20260904160915 74 315 0.0 0.0 0.00 0.00 0.00 58 945.0
20260904160424 74 338 0.0 0.0 0.00 0.00 0.00 58 945.0
20260904155916 74 338 0.0 0.0 0.00 0.00 0.00 57 944.0
20260904155415 74 338 0.0 0.0 0.00 0.00 0.00 57 944.0
20260904154942 74 338 0.0 0.0 0.00 0.00 0.00 57 945.0
20260904154414 74 338 0.0 0.0 0.00 0.00 0.00 57 945.0
20260904153937 74 338 0.0 0.0 0.00 0.00 0.00 57 945.0
20260904153416 74 338 0.0 0.0 0.00 0.00 0.00 56 945.0